STARLINK-11175, 60191

Orbit data source: Space-Track

STARLINK-11175, 60191 is a payload satellite owned by SpaceX/Seattle (US) in LEO that was launched on Wed, 03 Jul 2024 UTC via an FALCON 9 launch vehicle from the Air Force Eastern Test Range (AFETR). Payload-class satellites include a variety of spacecraft equipped with specific instruments for various scientific and technological missions. These include communications satellites like Starlink; space stations such as the ISS; scientific satellites like the Hubble; Earth observation satellites from companies like Planet Labs, Umbra, and HawkEye 360; GPS; miniature CubeSats for education and research; and military/defense satellites.

Loading next visibility...
Identifier
60191, 2024-124J
Orbit
LEO
Last TLE update
15 hours ago
Origin
Manufacturer
SpaceX/Seattle
Mission
Operational Commercial Communications
Bus & Motor
STARLINK V2M, Unknown motor
Mass
730 kg wet, ~700 kg dry
Launch date (UTC)
2024-07-03 (1 year ago)
Launch vehicle
FALCON 9
Launch site
Air Force Eastern Test Range (AFETR)
Object type
Payload
Rocket body
Debris
Shape & HBR
Box + 2 Pan, 29 m
Radar Cross Section
36.964 m², Large (>1 m²)

Expand to show TLE details & history

TLE from 15 hours ago
0 STARLINK-11175
1 60191U 24124J   25181.82846924 -.00001449  00000-0 -71106-5 0  9990
2 60191  53.1575 323.0444 0000835 133.8663 226.2424 15.69710260 58159
Epoch: 2025-06-30T19:52Z
TLE epoch observation values (Epoch: 2025-06-30T19:52:59.742Z)
Latitude
-0.00001°
Longitude
105.66279°
Altitude
361.03 km
Speed
7.694 km/s
True Right ascension
21h 32m 10s
True Declination
0° 00' 00"
Sunlit
Object was in full shadow at epoch
Visualization orbit readout
Latitude
-26.90703°
Longitude
-55.13351°
Altitude
367.588 km
Speed
7.689 km/s
Apparent Right ascension
10h 32m 00s
Apparent Declination
-33° 08' 51"
Sunlit
Object is in daylight
Visualization observer readout
Local Sidereal Time
22:11:07
Azimuth
326.623° NNW
Elevation
-82.041°
Doppler factor
1
Orbital elements
Apogee altitude
360.55 km
Perigee altitude
359.424 km
Semi-major axis
6,738.124 km
Eccentricity
0.00008
Inclination
53.1575°
RAAN
323.0444°
Arg. of periapsis
133.8663°
True anomaly
Unknown
Mean anomaly
226.2424°
Eccentric anomaly
Unknown
Mean motion
3.92405 °/min
Orbital period
91.74 mins
BSTAR
-0.0000071106
Loading maneuver chart data...
Loading SW <> Apogee altitude chart data...
Loading historical data...
Loading historical data...
Loading historical data...
Loading historical data...
Loading historical data...
Loading historical data...
Loading historical data...

STARLINK-11175 Visibility forecast

Observer location: undefined°, undefined°

Span
Click to sort rows by Start time (UTC) header in descending order
Start Az.
Max El. time (UTC)
Max El. Az.
Max El.
End time (UTC)
End Az.
4 mins2025-07-01 11:19:39.583Z175.424° S2025-07-01 11:21:39.583Z125.723° SE19.1°2025-07-01 11:23:39.583Z81.625° E
4 mins2025-07-01 19:19:39.583Z289.712° WNW2025-07-01 19:21:39.583Z201.756° SSW34.522°2025-07-01 19:23:39.583Z152.682° SSE
|